Theta_e
323 323 323 324 324 324 324 325 325 325 324 324 324 325 325 324 323 323 325 325 325 326 326 326 325 324 324 324 325 322 319 310 305 304 302 303 309 318 317 323 324 323 322 315 312 309 306 306 306 307 308 308 306 306 304 305 304 307 301 299 297 298 297 300 298 299 299 298 299 298 300 299 297 298 299 300 298 299 300 299 302 303 300 301 296 297 299 298
323 323 323 323 323 323 324 324 324 325 324 325 325 325 324 323 323 323 324 323 326 327 326 325 324 324 322 324 323 322 318 309 303 303 302 311 317 320 321 322 324 322 320 314 309 306 304 304 304 306 305 305 307 304 304 303 304 303 301 300 296 300 299 300 300 301 298 297 299 299 300 299 299 300 299 296 296 297 297 299 300 299 300 301 295 296 296 296
322 322 323 323 322 323 323 323 324 325 324 324 325 325 324 323 323 324 325 325 325 326 325 324 323 322 322 321 321 320 312 306 303 300 306 319 319 319 321 321 322 319 314 306 308 307 305 305 305 304 304 303 304 303 304 302 302 303 300 297 298 300 298 299 299 298 298 298 297 298 299 299 300 299 301 295 296 298 296 296 298 298 298 300 298 296 296 295
322 322 323 322 321 323 323 323 325 324 324 324 325 325 324 322 322 323 324 324 325 325 324 323 322 322 322 319 318 322 309 306 299 301 308 321 318 320 319 320 319 318 312 310 308 308 307 307 306 305 303 301 302 303 301 302 301 302 299 297 298 298 298 297 298 297 297 297 297 297 298 297 299 299 298 297 295 296 298 300 299 299 300 301 300 297 296 295
321 321 321 320 321 322 322 323 324 325 324 324 324 324 325 323 323 324 323 323 323 323 324 323 323 322 322 319 317 312 308 300 298 304 308 317 317 317 317 318 314 318 312 309 308 307 306 306 304 304 303 301 302 301 301 300 300 301 299 298 297 298 297 296 297 295 296 296 297 297 295 295 300 299 297 297 294 294 298 301 303 302 302 302 300 297 297 296
321 321 320 320 321 322 322 323 324 324 324 324 324 325 324 324 323 323 323 323 324 324 324 324 322 323 322 320 317 312 305 294 302 304 317 316 317 316 315 316 314 314 311 307 306 306 304 304 304 302 301 300 300 298 299 300 300 296 298 297 296 296 296 296 296 294 295 295 295 295 297 299 297 296 298 297 296 298 303 303 305 305 303 304 302 298 297 297
320 320 319 319 321 321 321 322 323 324 325 324 325 324 323 323 323 322 323 324 324 324 324 323 322 321 323 319 316 309 301 299 303 306 314 314 314 316 311 315 320 312 308 305 304 304 303 302 302 301 300 299 299 298 298 298 299 297 297 296 295 295 296 295 295 293 295 294 295 297 299 295 296 293 298 297 299 301 304 303 303 303 303 302 299 298 297 297
319 319 318 318 320 321 321 322 323 323 323 324 325 324 324 323 322 322 322 323 324 324 323 322 321 318 318 317 310 305 301 299 303 307 311 314 308 306 313 306 306 308 306 304 304 303 303 301 300 302 299 299 300 299 299 297 298 297 297 296 295 295 295 295 294 293 293 294 296 295 294 294 295 295 297 296 299 300 301 303 301 301 300 300 299 298 298 298
319 319 318 319 320 320 320 321 322 323 324 324 324 324 324 322 321 321 322 323 323 324 324 322 318 319 318 314 305 300 299 302 305 306 307 305 304 304 305 305 306 305 305 305 304 304 303 301 301 302 299 299 300 301 299 297 296 299 298 296 295 294 295 295 294 294 294 295 295 293 293 295 296 297 293 295 297 300 301 301 300 299 298 297 298 298 298 298
320 319 318 319 320 320 320 321 321 323 322 323 324 324 325 322 320 320 322 322 322 324 322 322 323 318 317 308 306 297 299 305 306 307 306 304 305 304 305 305 305 306 305 304 305 304 302 302 302 303 302 300 301 302 298 297 297 297 297 296 295 295 295 294 294 295 294 294 295 292 293 295 296 293 291 299 300 300 300 299 299 298 297 298 298 298 298 298
320 319 318 319 320 320 321 320 320 321 322 323 324 325 325 323 321 321 321 322 322 323 323 320 318 316 310 305 300 297 302 304 307 307 305 305 304 303 303 303 304 306 305 304 304 303 303 303 304 304 303 301 300 297 299 300 297 297 296 296 295 294 295 295 294 294 294 294 295 294 293 295 295 293 292 297 297 299 298 298 298 297 297 298 298 298 298 298
319 319 318 319 320 320 320 321 320 321 321 323 324 324 323 322 321 321 321 323 322 322 319 318 315 308 306 304 301 299 304 305 307 307 307 305 303 302 302 303 305 306 306 303 303 303 304 304 305 305 300 302 298 298 296 298 298 296 298 293 295 295 293 295 293 294 294 293 294 295 292 292 292 290 296 298 297 297 296 297 297 297 297 298 299 298 298 297
319 318 318 319 319 320 320 319 320 321 322 322 322 323 322 321 321 320 321 322 322 321 316 315 316 311 308 302 300 303 305 307 306 305 307 306 304 304 304 305 306 307 307 305 302 303 304 306 305 302 304 304 301 297 299 300 297 297 295 295 295 295 293 296 296 295 292 294 294 295 287 293 295 294 298 299 297 296 295 296 296 297 297 297 298 298 297 298
318 318 318 319 319 320 320 320 321 321 321 322 322 321 321 321 321 320 320 320 321 320 317 315 311 308 308 301 301 303 304 307 306 305 304 307 305 304 305 306 306 307 307 305 305 306 304 305 306 304 306 302 299 301 297 296 297 295 298 296 291 291 291 294 294 294 291 294 293 294 286 291 296 298 299 298 298 295 295 296 296 297 297 297 297 297 297 297
318 317 319 320 319 320 320 320 320 320 321 320 320 320 321 319 320 319 319 320 316 319 321 320 316 309 304 301 303 306 313 305 304 303 305 304 304 303 303 305 303 303 304 304 303 304 306 307 306 302 299 301 302 301 297 296 296 296 292 290 293 290 294 293 295 293 292 292 294 293 287 291 296 298 298 298 297 296 295 296 297 297 297 297 296 296 296 297
317 317 318 319 318 319 319 319 319 320 320 320 320 320 320 320 319 319 316 314 314 320 317 318 316 306 302 299 300 310 306 301 301 303 304 304 303 303 303 302 303 303 302 302 304 305 306 305 303 301 298 299 298 297 296 295 294 295 291 288 289 291 292 293 291 294 293 292 293 293 289 292 294 297 297 297 296 296 295 296 296 297 297 297 296 296 296 297
317 317 319 318 318 318 318 319 318 319 319 319 319 319 319 318 317 321 319 315 314 319 313 308 307 307 298 301 304 301 300 302 303 304 304 305 303 303 303 301 301 301 302 302 302 304 303 301 299 300 302 299 299 297 291 290 290 292 294 290 292 289 291 290 291 293 294 293 291 293 289 291 294 296 297 295 296 295 294 295 296 296 297 297 297 297 296 296
317 318 319 318 319 319 319 320 319 318 318 318 318 321 324 318 315 317 318 317 319 316 314 312 307 303 299 301 296 298 301 301 302 301 302 305 302 304 302 301 302 301 301 299 302 299 301 298 300 297 297 297 295 295 288 286 291 290 289 289 290 292 292 291 291 292 292 292 290 292 291 291 294 296 297 299 297 295 295 296 296 296 296 296 296 296 296 296
317 317 318 318 317 318 318 319 318 318 317 317 318 314 317 317 322 313 311 310 310 305 301 303 302 296 296 297 300 301 301 300 301 301 302 303 303 303 303 303 302 300 298 297 299 299 300 300 299 297 293 294 294 295 291 293 293 292 292 290 290 287 289 290 294 292 293 291 291 291 290 292 294 295 297 298 299 296 296 297 296 296 296 295 295 296 296 295
317 317 317 317 317 318 318 318 319 317 315 321 327 324 318 313 308 307 310 307 302 301 300 302 301 301 299 299 299 302 302 300 299 302 303 304 301 302 302 302 302 301 299 297 299 298 299 295 291 292 295 298 297 297 296 294 293 293 293 291 289 289 290 294 293 292 292 289 290 291 292 292 293 294 296 297 298 297 296 296 296 295 295 295 294 294 295 295
317 317 316 316 317 318 318 318 319 316 313 323 319 314 303 302 299 299 302 301 303 302 302 302 300 298 297 298 300 299 297 298 300 301 301 304 301 300 299 299 298 296 299 300 301 299 298 293 293 297 294 294 293 294 294 293 292 292 291 290 288 290 288 293 291 290 293 289 289 292 291 291 292 294 296 297 297 295 295 294 294 294 294 294 294 294 295 295
317 315 315 316 317 317 317 319 317 315 313 321 317 307 307 308 312 311 306 299 301 304 302 300 298 298 300 299 298 298 297 295 297 300 303 304 301 296 301 297 298 296 298 298 298 296 295 292 296 292 293 293 293 293 293 292 293 292 288 288 287 289 293 293 291 290 291 289 288 291 289 290 292 294 296 296 294 295 295 294 293 293 293 293 294 294 295 295
316 315 314 316 317 317 317 317 319 314 324 316 312 310 309 313 312 311 309 302 300 303 302 302 300 298 298 299 299 298 296 295 296 299 299 302 300 298 301 297 298 299 297 297 294 294 292 297 291 292 293 293 292 292 291 292 292 289 289 287 287 292 288 286 290 289 291 288 287 289 287 290 293 296 296 295 293 294 294 292 293 294 293 293 294 294 295 295
315 315 314 315 317 317 316 317 314 319 315 316 313 310 310 313 313 312 308 300 299 301 303 302 299 299 298 296 300 297 296 297 296 296 301 301 299 300 300 298 297 295 295 298 296 294 293 292 292 292 292 292 292 291 291 290 289 292 291 289 288 289 289 287 288 290 292 292 290 288 288 290 294 293 293 293 294 293 294 292 293 294 295 294 295 296 296 295
315 314 314 314 315 316 316 316 313 313 312 316 312 312 312 313 313 313 305 301 298 300 301 303 302 299 299 300 302 298 299 297 298 298 300 299 299 301 300 298 297 295 297 295 296 295 294 289 291 291 290 290 291 290 291 290 287 290 292 291 289 289 287 288 289 288 287 287 287 289 283 285 291 291 293 293 294 293 292 294 294 294 294 296 295 294 295 295
315 314 314 315 316 315 315 311 314 317 315 311 311 312 312 313 315 314 304 294 288 299 302 297 300 296 300 298 300 300 296 296 297 298 299 298 299 299 299 297 296 294 295 295 294 295 292 288 290 292 290 291 290 290 292 290 287 286 287 287 289 287 286 287 287 286 283 283 287 290 281 280 290 290 292 292 293 292 294 293 293 293 293 293 293 293 293 293
315 314 313 315 315 314 315 307 313 317 312 315 312 313 314 313 314 315 299 291 287 296 295 300 297 299 302 299 298 300 293 296 297 298 298 299 298 303 296 298 297 296 297 298 291 290 290 289 288 289 290 290 290 289 292 290 287 286 286 288 287 287 286 287 286 285 284 289 290 289 287 282 283 289 290 292 291 291 292 292 292 292 292 292 293 293 293 293
314 314 312 314 314 315 311 311 314 313 309 313 311 310 312 313 313 311 296 282 283 300 296 298 298 302 300 299 298 296 296 297 297 296 297 298 298 300 296 296 296 297 294 294 286 293 292 288 289 289 289 289 289 288 288 291 287 288 286 288 287 288 288 287 285 284 286 284 282 286 288 282 283 289 290 291 289 289 290 290 291 291 292 292 293 293 293 293
315 313 313 314 314 309 321 314 314 314 310 311 309 310 311 314 310 299 290 282 294 294 304 297 302 298 299 299 296 296 297 298 294 298 298 297 298 298 296 298 296 295 295 296 290 290 293 290 292 291 289 289 289 288 288 290 287 290 289 288 289 288 287 287 284 284 284 282 279 284 286 281 282 289 289 289 288 286 288 290 290 291 292 292 292 292 293 293
314 312 312 312 316 322 316 317 311 311 310 309 311 311 310 309 303 292 285 280 297 289 296 299 297 295 299 297 298 294 295 296 296 299 298 298 296 299 294 298 298 295 292 294 293 292 290 292 292 292 290 288 288 287 288 288 289 290 290 288 289 287 286 286 285 285 283 278 282 284 284 283 279 286 288 287 285 286 289 290 290 291 291 291 291 291 292 292
313 311 310 313 315 312 312 309 311 312 309 309 310 311 311 305 292 286 281 287 295 296 300 297 296 299 294 292 291 297 296 296 295 298 297 297 297 297 297 295 297 293 291 292 290 292 291 291 292 290 290 290 290 289 288 289 289 289 287 287 287 287 286 284 284 285 279 280 280 283 283 285 278 283 288 286 287 288 288 286 288 289 289 290 290 291 292 292
312 310 309 311 309 314 310 310 311 312 312 311 311 309 303 289 291 284 284 299 289 293 293 292 295 292 293 293 290 292 289 294 294 294 292 292 293 294 293 289 289 286 288 289 288 291 290 290 290 290 290 288 290 288 289 289 290 288 288 287 283 282 284 280 282 279 280 280 280 281 283 281 281 286 289 287 288 288 289 289 288 288 288 290 290 290 291 292
312 310 309 311 312 312 310 312 311 310 311 311 309 304 295 287 281 289 287 290 287 292 292 292 293 292 291 290 291 291 291 291 295 294 291 294 293 292 290 292 290 289 283 289 288 288 288 286 290 289 289 290 288 286 288 286 288 288 286 285 282 279 278 275 279 282 282 280 282 282 283 278 284 287 289 287 288 289 289 289 289 289 289 289 290 290 290 291
311 310 313 307 311 308 310 309 310 308 312 312 305 299 291 283 283 287 286 290 291 295 295 292 292 293 290 289 290 289 289 291 291 292 293 292 292 290 291 290 292 291 290 288 286 286 283 284 287 288 287 288 288 288 286 286 287 287 288 285 283 282 278 274 278 276 278 281 280 281 279 279 280 284 288 288 289 289 290 289 290 290 290 290 290 290 290 290
308 312 313 311 311 310 311 309 309 310 310 309 300 293 284 284 287 286 288 290 293 293 293 291 290 290 291 289 290 289 288 288 291 290 293 291 289 289 289 289 291 290 290 285 286 285 286 285 287 287 287 287 288 288 287 288 287 288 287 288 284 282 286 279 281 280 279 279 279 278 278 285 285 289 289 289 289 289 290 289 290 288 289 290 290 289 289 289
311 317 313 310 309 312 312 310 309 309 311 303 294 288 286 287 286 290 291 291 292 290 291 293 289 290 290 289 289 287 291 286 290 289 289 290 289 289 289 288 287 288 287 285 287 284 286 284 286 288 287 286 286 287 288 288 282 285 285 283 284 285 284 281 282 284 281 279 276 284 283 285 290 287 288 288 288 288 289 289 287 288 289 289 289 289 289 289
315 314 309 310 312 312 310 311 309 309 309 301 292 287 289 292 291 291 294 292 291 290 291 285 288 286 287 287 289 286 287 288 286 287 287 289 288 289 289 288 287 289 288 285 287 286 282 284 286 287 285 285 287 286 288 288 287 285 283 284 287 286 285 282 276 279 278 275 279 282 280 281 282 280 286 287 286 286 288 287 286 288 288 287 288 288 288 288
313 308 307 309 309 309 310 310 309 312 304 297 289 291 293 292 291 293 292 291 291 290 288 288 287 290 287 286 287 285 287 286 289 288 288 291 286 289 289 288 288 288 287 288 286 286 288 282 285 284 285 286 287 287 287 287 289 285 284 288 283 280 279 283 279 273 274 274 276 280 282 281 283 282 284 285 284 285 286 286 285 286 287 287 288 288 288 288
310 308 304 309 311 308 310 309 312 306 300 291 291 289 294 293 291 292 292 291 291 290 288 288 286 288 287 286 286 285 283 286 286 287 285 288 285 289 288 288 288 288 287 289 287 288 290 281 284 284 285 285 286 287 283 284 286 287 288 286 287 284 280 279 281 279 279 274 274 276 279 278 285 285 286 284 285 284 285 285 286 287 287 287 287 287 287 287
307 303 303 309 310 309 309 311 307 302 297 289 290 290 292 292 292 291 291 291 290 289 288 287 289 286 288 286 284 286 285 283 286 287 287 289 287 289 288 289 288 288 289 288 288 291 286 288 279 285 285 286 283 286 284 286 284 283 283 284 283 283 284 283 282 279 278 275 275 274 274 281 284 287 287 285 285 285 285 285 286 286 287 288 288 287 287 287
306 300 304 309 311 310 312 310 301 294 292 291 292 292 293 293 293 292 292 292 292 292 287 287 288 286 288 286 286 288 286 287 286 286 288 288 287 285 285 284 286 288 288 287 288 289 285 286 281 285 284 284 286 283 284 284 285 285 285 283 285 282 280 277 276 283 279 278 275 275 273 281 287 289 288 286 287 286 287 286 286 286 287 287 288 288 287 287
301 294 300 310 310 313 308 297 293 291 292 291 291 293 293 293 292 291 290 290 291 289 290 287 288 288 289 288 288 287 286 286 287 286 288 286 288 287 285 283 286 284 285 286 287 289 286 286 284 281 283 285 284 283 284 284 285 285 285 284 285 284 283 279 273 278 278 279 277 277 274 277 287 289 288 288 287 287 287 286 286 286 287 287 287 287 287 287
299 297 307 309 308 311 301 294 291 292 291 292 292 291 290 291 289 289 290 290 290 291 289 289 290 288 290 288 288 288 288 286 288 286 288 288 287 284 285 284 284 286 285 287 289 287 287 284 282 283 287 286 283 284 283 283 284 284 284 284 283 282 283 281 280 279 276 278 276 277 274 279 285 289 288 288 288 288 288 287 286 286 287 287 286 286 286 286
300 301 303 314 313 311 301 289 289 290 290 292 292 292 292 292 291 290 290 290 290 287 289 289 290 290 288 290 288 287 289 283 289 287 287 286 286 283 283 284 283 286 286 286 284 287 282 286 283 279 280 283 282 281 282 282 283 284 284 284 283 283 280 279 279 280 275 277 277 276 271 278 284 288 289 289 288 287 287 287 287 285 286 286 286 286 286 286
300 302 301 304 307 305 297 296 294 290 289 290 288 289 288 291 291 290 290 290 289 288 287 288 289 289 289 290 288 289 289 286 284 285 282 284 285 282 283 282 281 284 287 285 284 286 284 284 283 278 275 273 275 277 279 281 283 284 285 281 281 280 280 279 277 279 274 278 278 276 276 282 287 287 286 286 286 285 286 286 286 286 285 285 285 285 285 285
297 291 299 300 302 300 295 294 295 293 289 288 288 288 287 288 290 290 290 290 289 289 287 289 290 288 288 288 288 288 288 288 284 284 284 285 285 285 283 283 283 285 284 283 283 284 284 285 283 282 280 279 281 283 286 285 283 280 283 283 280 280 280 280 279 276 274 277 276 279 279 280 281 282 283 284 284 283 283 284 284 284 284 285 285 285 285 285
299 293 292 291 297 297 292 296 294 293 290 290 287 287 286 288 289 288 291 289 289 289 289 289 289 287 288 287 287 287 288 287 287 282 283 284 284 283 282 284 284 284 281 283 284 283 283 282 283 283 282 283 284 284 285 284 281 282 281 281 282 279 278 277 276 276 281 276 273 281 281 276 278 280 282 282 283 283 283 283 283 284 284 284 284 284 285 284
296 294 296 292 293 291 291 292 293 292 290 291 287 288 287 288 289 286 289 289 289 288 288 289 287 289 289 288 287 284 287 287 287 284 283 281 283 284 283 284 285 283 283 284 284 283 283 281 280 277 281 282 283 283 284 283 282 282 281 281 280 281 279 276 276 278 279 275 274 278 279 277 279 281 282 282 282 282 282 283 284 284 284 284 284 283 283 283
298 295 294 293 293 291 289 290 290 293 291 290 289 288 287 288 287 289 289 289 288 288 289 285 288 289 289 289 287 285 287 282 283 284 281 284 283 283 284 284 284 286 284 284 284 283 282 282 280 278 278 281 282 283 284 281 281 280 281 280 280 280 279 280 279 280 279 278 279 279 278 278 280 281 281 282 283 283 283 284 284 283 283 283 282 282 282 283
295 296 293 292 293 290 288 288 290 292 292 288 288 290 289 289 289 290 289 288 286 288 289 287 289 288 288 288 288 284 286 287 283 282 283 282 283 284 284 284 284 285 285 283 283 283 281 280 279 280 278 281 283 281 281 281 280 278 280 279 280 280 280 280 279 279 280 278 279 278 277 277 283 283 282 283 283 284 283 282 282 282 282 281 281 281 282 282
299 298 302 296 292 289 288 288 291 291 290 290 289 289 289 289 289 289 289 290 288 288 288 288 289 288 288 288 288 288 289 287 287 286 286 284 283 285 283 284 285 283 283 282 283 282 281 281 281 280 279 280 281 280 281 282 279 278 277 277 277 277 275 277 276 279 277 275 276 276 275 276 281 282 282 282 282 281 280 281 281 281 281 280 281 281 281 280
299 296 297 297 292 287 290 289 290 291 289 290 290 290 289 291 289 289 288 290 290 290 290 289 289 288 288 288 286 289 287 288 288 288 287 288 287 287 287 286 285 284 284 283 280 282 282 281 280 281 277 279 282 282 281 281 277 275 274 275 277 277 278 278 279 279 279 279 275 274 275 279 280 281 279 280 280 280 280 280 280 280 281 281 281 280 279 279
Wind_Speed
8 7 7 7 6 6 5 5 4 3 3 3 3 4 5 5 3 3 2 2 2 3 3 3 3 4 4 4 4 6 8 7 4 5 5 5 3 7 13 11 12 12 9 8 8 8 6 3 4 1 5 5 2 4 2 1 2 3 6 6 7 5 5 2 4 3 5 4 4 7 8 8 8 6 5 3 6 9 3 7 8 7 6 3 6 4 7 12
9 8 7 7 7 6 5 5 4 3 3 3 3 4 4 4 4 3 2 3 2 3 3 3 3 4 4 3 3 5 4 6 2 6 6 4 4 9 11 11 9 10 9 8 6 5 5 3 2 4 5 4 3 1 3 2 1 6 5 6 7 3 4 4 4 3 2 3 2 3 6 7 7 6 7 7 8 10 11 11 10 11 11 9 8 7 9 11
9 9 9 8 7 6 5 5 4 3 3 3 4 4 4 3 2 2 2 3 3 3 3 2 3 3 4 2 3 5 5 6 6 5 4 3 7 10 9 10 8 8 7 7 6 6 6 5 2 5 4 4 2 1 5 1 3 2 6 6 4 5 4 5 3 2 4 3 1 3 5 6 3 1 6 8 10 9 14 11 12 15 14 15 13 11 11 12
9 9 9 9 8 8 7 6 6 4 4 4 4 4 4 2 0 1 2 2 3 3 3 3 2 2 3 4 1 4 6 6 3 3 7 9 10 8 9 8 8 8 7 6 6 6 4 4 3 5 2 6 3 3 6 3 4 3 5 7 4 5 3 4 3 3 2 3 2 3 2 5 6 5 5 5 7 13 13 14 13 15 16 15 15 14 13 13
10 9 9 9 9 8 8 7 6 6 5 4 5 5 5 4 0 1 2 2 3 3 3 4 3 4 4 4 4 4 4 6 4 2 9 10 10 8 7 7 7 6 6 4 4 4 5 5 3 2 3 3 2 4 3 2 3 3 3 4 5 2 6 4 2 2 2 3 2 3 5 6 2 5 9 10 11 9 4 6 13 13 11 13 15 15 14 14
9 9 8 8 8 8 8 7 7 5 5 5 5 5 5 5 2 2 2 3 3 4 4 4 5 4 5 6 4 5 3 3 2 4 7 10 8 7 6 5 6 6 5 5 4 3 5 5 6 5 4 5 3 5 4 0 1 7 4 2 1 3 4 3 2 2 1 2 4 4 5 0 6 7 9 13 17 13 3 3 4 2 3 5 13 14 14 15
8 7 7 7 7 7 7 7 7 7 6 6 5 5 6 6 5 3 3 3 3 4 4 5 5 4 5 5 4 6 4 4 1 7 9 11 10 5 5 5 6 5 5 6 5 5 5 5 5 3 4 4 3 4 2 1 3 6 5 2 1 0 3 2 2 1 1 1 4 2 3 6 8 12 7 14 18 17 5 5 3 3 2 4 10 13 15 16
8 7 7 6 6 6 7 8 8 7 7 7 6 6 6 6 6 5 4 4 4 4 4 4 3 2 1 3 4 4 2 4 7 8 10 8 8 4 3 7 5 6 6 4 4 7 4 7 6 1 6 4 3 4 2 4 5 6 6 4 2 2 1 2 2 2 2 3 3 3 7 11 10 10 5 15 16 15 15 6 6 5 5 6 9 12 13 14
8 7 7 6 5 5 6 6 7 6 6 7 6 6 5 5 5 6 6 5 4 4 3 3 3 3 4 4 5 7 2 5 6 9 10 9 7 5 4 3 2 6 3 3 3 4 4 5 5 5 2 3 2 2 1 4 5 1 3 3 2 3 4 2 3 3 3 2 3 6 12 11 8 5 15 21 18 15 13 9 7 7 7 9 11 12 13 13
9 8 7 6 5 5 5 5 5 6 7 6 6 6 4 4 4 6 7 6 4 3 3 3 5 5 5 5 3 6 4 5 5 7 8 7 8 6 3 5 5 3 4 1 3 5 7 3 3 3 2 3 2 0 2 5 2 3 1 2 3 2 4 4 6 4 3 5 3 9 12 10 5 3 10 4 3 5 9 10 8 9 11 11 10 10 11 12
9 8 8 6 5 5 5 5 5 6 7 7 7 7 6 4 5 6 6 5 3 2 3 3 2 3 4 5 6 2 1 3 4 5 7 6 5 4 7 7 7 5 0 1 1 2 3 3 0 2 2 1 5 3 2 2 1 1 2 1 3 3 6 4 7 5 3 6 6 8 13 12 7 6 16 12 5 4 8 8 9 10 11 11 12 11 11 11
9 8 8 6 6 6 6 5 5 6 7 8 7 7 6 6 6 6 5 2 3 0 2 3 5 4 5 7 3 4 2 4 3 5 4 7 4 4 5 5 5 4 4 0 2 1 2 1 2 1 1 3 3 4 3 2 1 3 2 4 6 7 8 11 10 8 6 4 3 3 15 17 14 10 21 16 6 6 6 8 9 11 10 11 11 11 11 11
8 8 7 6 6 7 6 5 5 6 7 7 7 7 6 5 5 5 5 2 2 1 1 3 6 3 4 4 4 4 1 2 3 4 5 2 1 0 3 4 4 4 6 1 3 1 2 2 5 3 3 3 4 1 4 2 3 1 4 5 6 8 10 12 9 4 6 3 4 2 6 10 10 21 13 5 8 5 7 9 10 9 10 10 10 10 11 10
7 7 7 6 6 6 6 6 5 6 7 6 5 5 6 5 4 3 2 4 1 1 1 4 4 3 5 2 3 2 2 2 4 2 8 6 5 0 2 4 6 6 7 7 4 1 2 4 2 8 4 3 2 3 6 3 3 3 3 3 6 6 2 9 6 9 7 4 5 3 6 11 13 8 10 9 7 9 9 10 11 11 10 10 10 11 11 11
7 7 7 7 7 7 7 7 6 6 6 6 5 6 5 5 3 2 2 5 2 2 2 4 3 4 4 3 3 3 2 2 2 6 6 8 6 4 1 2 5 6 5 3 2 1 1 5 7 4 3 2 6 4 4 5 5 4 3 4 7 5 1 8 7 9 7 4 6 6 6 10 12 9 11 6 7 8 10 11 10 11 11 11 10 11 11 10
8 8 8 8 8 8 7 7 7 7 6 6 7 6 3 3 2 1 1 2 2 2 3 3 1 4 6 2 3 4 3 2 4 5 3 5 6 5 4 1 1 1 2 1 1 1 1 2 2 3 6 3 5 5 5 5 6 5 6 5 5 5 4 4 7 3 2 5 6 9 8 11 12 7 6 7 8 9 11 14 13 13 13 11 10 9 9 9
9 9 9 8 8 8 7 7 6 6 6 7 8 5 4 2 0 4 2 3 1 3 3 1 1 1 4 3 1 3 2 3 2 2 5 3 5 6 5 4 3 2 2 4 5 5 4 3 2 2 3 3 1 2 4 5 5 7 5 4 6 7 7 6 6 2 3 5 5 10 9 13 16 18 10 9 9 11 13 14 13 12 11 11 9 8 8 8
10 9 9 8 8 7 7 6 7 7 8 8 6 2 2 2 1 2 3 3 1 2 1 1 1 2 2 3 2 4 3 3 5 6 5 3 2 6 5 6 3 5 5 5 7 8 2 3 4 1 3 4 4 5 3 4 5 5 5 5 7 6 7 9 8 5 3 5 6 9 13 16 18 19 18 12 12 11 13 12 12 12 10 10 10 8 8 7
10 10 9 8 8 8 7 7 7 7 8 6 4 2 4 3 3 2 3 1 3 4 4 2 2 3 3 4 2 4 3 3 6 5 2 5 3 5 5 4 5 6 6 7 4 4 1 2 4 4 5 6 6 7 6 5 4 7 7 8 9 8 9 10 4 4 2 4 7 10 11 13 16 17 20 15 10 9 11 11 10 9 7 7 7 7 6 7
11 10 10 9 8 8 7 6 6 7 9 4 2 2 3 3 3 4 4 7 5 3 3 3 2 3 5 1 5 7 2 2 3 1 2 1 4 4 7 5 6 7 8 5 3 2 2 4 3 3 3 2 1 2 4 4 4 6 7 8 10 10 12 11 6 4 2 3 9 11 11 14 16 18 20 16 11 10 11 11 7 5 5 4 4 4 6 6
9 9 10 9 8 9 9 8 7 7 6 4 3 4 3 6 6 3 4 3 1 1 3 2 3 4 4 4 5 9 2 3 2 1 3 1 4 3 6 6 7 8 3 1 3 3 3 5 4 3 6 4 3 3 1 3 2 6 7 9 10 9 11 5 2 4 2 2 5 8 11 14 17 20 17 12 8 8 6 6 4 5 4 3 2 4 4 3
8 10 10 10 10 10 10 8 7 6 5 4 4 3 2 3 3 2 3 2 2 0 2 1 1 3 2 2 3 3 3 3 5 1 3 8 3 6 4 6 6 6 4 2 3 4 4 5 3 5 5 5 4 3 2 2 4 4 6 8 6 8 7 3 6 5 3 3 7 7 12 15 20 19 14 7 4 4 4 4 4 5 4 2 2 1 1 1
11 12 12 10 9 9 9 7 7 6 3 2 3 2 3 2 2 1 3 5 2 1 1 1 2 2 1 3 1 1 3 4 2 3 7 8 4 4 4 6 5 2 2 4 5 4 7 3 4 3 2 3 3 1 0 2 4 6 7 5 6 5 5 5 4 2 5 2 8 9 12 13 16 11 2 5 1 3 4 2 3 2 3 3 4 4 3 3
12 13 12 12 9 9 8 6 6 4 5 4 6 4 2 3 3 3 3 3 2 3 1 2 2 2 3 4 3 3 5 1 2 1 8 7 3 3 4 3 5 2 5 1 5 6 5 5 3 2 2 1 2 2 3 4 5 6 8 7 8 8 5 2 7 8 11 8 4 10 10 10 7 3 5 3 4 1 2 1 2 2 1 3 3 3 5 8
12 13 13 13 11 9 8 5 1 3 1 2 4 2 2 3 3 3 3 3 3 3 1 2 1 1 3 0 3 3 2 2 2 3 5 6 4 4 1 1 3 4 2 2 4 6 4 3 2 2 1 1 3 4 6 5 5 7 3 3 4 6 7 7 9 10 9 4 4 7 8 5 5 5 4 4 5 6 2 5 9 8 7 6 8 10 10 10
13 13 13 11 12 10 5 2 3 0 2 2 2 2 2 3 2 3 3 3 2 3 3 2 2 2 1 2 2 1 1 3 3 3 3 4 3 3 1 3 1 2 2 1 4 3 3 1 1 1 2 1 3 6 1 2 6 6 0 3 3 2 3 7 7 6 6 7 3 4 6 9 3 9 3 5 5 8 7 11 10 9 9 9 10 11 10 10
14 13 13 12 12 10 3 3 2 1 3 3 1 2 3 3 1 3 3 2 2 2 3 2 3 1 2 3 3 2 4 3 1 1 2 2 2 1 4 1 2 2 2 2 3 3 3 3 2 1 2 4 4 5 4 5 2 4 4 0 3 4 6 6 5 5 9 8 11 8 8 9 7 4 9 6 6 7 9 10 11 10 11 11 10 10 10 9
14 14 13 12 10 9 3 1 2 2 3 2 2 2 3 2 2 3 3 2 1 1 2 1 2 1 3 2 2 4 4 4 3 3 2 0 3 3 3 3 4 3 3 2 6 4 2 1 4 3 4 4 4 3 2 2 5 2 1 2 4 4 7 6 5 7 7 4 8 6 7 4 4 4 7 9 5 7 7 9 10 10 10 10 10 9 9 8
13 14 13 9 8 6 4 2 3 2 2 2 2 2 1 1 4 3 2 3 2 1 2 1 1 2 2 2 3 1 2 1 4 4 2 3 1 3 4 2 2 1 1 4 7 2 1 2 1 2 2 3 5 2 4 1 7 3 2 3 5 6 7 6 5 5 3 3 8 5 7 5 6 4 5 7 6 5 7 8 9 10 9 9 9 9 9 8
13 14 14 10 5 3 1 1 5 2 1 0 2 2 2 3 3 3 2 4 2 0 2 1 2 5 4 6 4 1 3 1 0 4 1 2 2 4 2 2 2 3 4 3 6 2 3 1 2 2 3 4 2 3 1 2 2 2 4 8 8 7 7 5 5 4 3 6 3 6 3 3 4 4 5 1 2 1 5 6 7 8 9 9 9 8 8 7
11 12 14 11 2 2 3 1 3 2 0 1 3 3 3 3 2 2 3 1 2 2 3 1 1 2 5 6 5 2 1 2 3 6 2 3 3 4 3 2 3 4 4 3 6 4 4 2 3 1 2 2 2 2 1 1 1 3 4 6 9 8 6 4 3 3 3 3 5 2 4 1 4 7 3 8 6 4 5 6 7 8 9 8 8 7 7 7
9 8 12 8 2 3 4 3 2 1 1 2 3 3 3 3 3 3 2 2 2 2 3 3 2 2 5 1 4 4 5 3 3 4 4 4 4 3 3 3 3 4 3 1 1 5 4 3 4 4 2 1 2 6 4 3 4 4 6 6 6 7 5 4 6 4 5 3 4 3 2 4 9 10 6 12 9 9 10 8 8 7 7 7 7 8 7 7
8 5 5 4 3 3 3 2 1 1 2 4 3 3 4 2 3 2 0 2 0 3 1 1 4 4 5 6 2 4 2 2 3 1 2 1 3 3 3 2 3 3 4 5 8 6 2 3 3 2 2 2 3 4 1 3 4 4 4 4 5 6 5 8 7 5 6 6 3 6 5 7 13 11 7 11 10 11 10 9 7 6 4 4 6 7 7 8
7 6 2 2 3 2 1 2 1 1 3 4 4 3 2 2 2 4 0 3 3 1 2 1 4 5 2 3 3 5 2 3 3 3 2 1 2 1 3 3 3 2 4 6 6 4 5 2 4 3 1 2 3 3 3 4 6 4 4 4 3 3 4 8 5 9 8 9 3 1 2 3 7 2 7 12 11 10 8 5 5 4 3 4 4 5 7 8
5 4 1 2 2 2 1 0 2 3 4 4 4 2 2 2 1 2 0 3 2 3 3 3 4 4 2 2 2 1 2 1 1 5 1 3 1 3 4 3 3 3 2 4 2 2 4 4 2 2 2 2 2 2 2 5 6 1 2 1 4 2 2 8 8 9 8 8 6 4 4 2 4 10 10 8 8 8 7 8 5 3 4 4 3 6 7 8
4 1 2 1 3 2 1 0 2 3 4 3 3 2 3 1 1 1 1 1 1 4 8 4 4 4 2 2 2 1 2 1 3 4 1 1 3 2 3 3 3 4 3 2 3 3 1 4 4 4 2 1 3 3 0 2 2 3 2 3 3 3 4 7 10 9 4 6 10 5 4 5 5 9 9 9 7 7 7 7 6 4 6 5 4 7 8 7
2 0 2 1 1 4 3 1 2 4 4 4 2 2 3 2 3 2 3 4 2 4 4 4 1 3 3 2 1 1 0 2 2 2 2 2 2 3 2 2 2 1 4 3 1 1 2 7 5 3 3 4 2 2 2 2 2 2 4 4 2 0 3 3 6 4 6 9 7 3 6 7 4 6 7 9 5 4 8 8 5 7 7 7 6 7 9 11
3 1 1 1 3 4 3 2 3 4 3 3 2 3 1 1 2 2 2 2 2 2 3 4 0 1 1 3 2 2 2 3 3 2 5 2 2 1 1 1 2 2 3 2 2 1 2 7 2 1 4 3 2 2 5 2 2 3 4 2 4 3 3 3 1 6 7 8 7 7 3 6 6 6 7 7 4 5 8 7 6 9 9 10 10 12 13 12
1 2 2 2 2 4 3 3 3 4 3 2 0 2 2 1 2 2 3 4 2 3 3 2 2 1 2 3 2 1 2 3 4 3 4 2 3 2 2 3 2 1 1 3 3 2 2 3 1 1 1 2 3 3 3 4 2 1 2 4 2 2 5 6 1 3 3 11 9 8 3 8 3 3 7 7 6 6 9 8 12 12 14 13 12 12 12 13
2 3 1 1 3 4 3 2 3 2 2 2 1 1 1 1 2 3 1 3 1 2 1 1 1 3 1 0 1 3 1 1 3 2 2 2 2 5 3 2 3 1 1 1 4 3 3 3 6 3 1 1 3 6 4 4 0 3 3 2 2 2 2 2 3 5 7 8 9 11 11 3 5 5 6 7 8 9 6 8 10 12 13 14 12 12 12 13
1 3 1 2 5 4 3 3 1 1 1 1 1 2 1 2 1 2 2 1 2 1 2 3 3 2 3 2 1 1 2 2 2 2 2 0 3 0 5 4 5 2 1 3 4 3 3 5 7 7 6 5 3 6 5 4 3 4 3 3 3 3 4 4 6 3 2 4 7 7 12 5 4 5 5 6 4 4 4 8 9 11 13 12 11 13 14 14
3 2 1 3 6 4 3 1 1 0 1 1 1 2 1 1 2 2 1 1 2 1 2 2 2 3 3 3 4 2 3 3 2 3 1 2 3 4 2 2 3 3 3 3 3 4 3 4 6 8 7 8 5 5 3 2 2 2 3 3 2 2 2 4 9 2 1 3 3 6 11 9 3 3 7 5 3 4 7 11 11 12 14 14 14 16 16 16
2 3 2 4 4 3 3 0 1 0 0 2 2 2 1 1 1 1 1 2 2 0 1 3 1 2 1 2 2 3 1 3 3 1 2 2 2 3 3 4 3 4 3 2 4 3 1 3 5 8 10 3 7 5 4 1 1 2 4 3 1 3 2 4 6 5 6 8 9 8 10 6 5 4 5 6 2 5 8 10 12 12 12 14 17 18 18 16
2 2 0 2 1 2 2 1 1 2 1 3 1 2 0 2 1 1 1 1 2 1 2 2 1 1 2 2 3 3 2 2 2 3 1 2 1 3 2 2 4 1 3 4 3 5 3 1 1 8 7 2 4 3 3 2 2 2 2 3 1 2 4 1 1 3 7 9 12 9 13 4 4 4 2 12 17 12 13 13 13 14 14 15 16 15 14 16
1 1 2 2 5 3 1 2 1 1 1 1 1 1 0 2 1 2 2 1 0 1 2 1 2 2 2 1 3 3 3 3 3 3 0 2 1 2 3 2 5 2 5 4 5 5 3 6 5 6 8 8 8 7 6 4 5 5 2 2 1 2 2 2 6 4 7 2 4 8 12 10 8 11 18 18 18 14 14 15 16 15 16 17 18 18 17 17
1 1 1 1 3 4 4 1 2 2 1 0 1 1 1 1 2 1 2 1 1 1 2 3 1 1 3 2 4 3 4 3 3 2 2 1 1 2 2 2 1 3 4 5 5 3 2 3 5 6 6 8 8 8 5 3 8 7 8 3 3 1 1 3 5 6 8 8 9 12 12 16 15 15 17 19 15 15 17 18 18 18 18 18 17 17 18 19
1 1 2 1 1 4 3 3 2 2 1 1 1 2 2 2 1 2 1 1 2 2 1 3 1 2 1 2 4 4 1 3 3 1 2 4 1 2 3 1 1 0 3 2 1 1 2 4 2 4 7 10 12 13 12 9 11 12 10 7 1 5 4 4 6 7 9 11 12 2 13 16 19 19 18 15 14 15 17 18 18 18 18 19 20 20 21 22
1 1 0 2 2 2 2 2 4 2 1 3 0 0 2 3 1 1 2 1 1 2 3 3 3 5 4 4 5 3 1 5 3 2 1 1 2 1 1 2 0 2 4 1 0 1 2 5 2 1 5 9 12 14 13 10 8 7 8 8 8 3 6 4 6 9 9 6 10 16 18 17 18 19 13 12 16 17 19 20 19 19 20 20 22 23 24 23
2 2 1 1 1 2 2 2 3 2 1 2 1 1 1 2 2 2 3 1 2 2 3 2 2 0 2 2 3 3 5 4 1 2 1 2 1 2 2 2 2 1 2 1 1 1 1 4 2 1 8 11 13 12 6 6 2 5 4 6 5 6 3 4 7 8 8 10 14 17 19 18 18 11 13 15 17 18 18 18 19 20 22 22 24 25 23 21
0 2 0 0 1 2 1 1 1 3 1 0 0 1 2 2 3 1 1 2 2 2 1 4 3 2 2 2 4 3 3 4 1 3 2 2 3 2 2 2 1 1 1 0 1 1 2 1 4 2 4 9 1 5 1 4 1 4 5 7 7 7 5 3 3 9 11 11 13 16 19 18 7 14 17 18 18 17 18 22 23 22 21 23 23 24 22 20
2 2 2 1 2 1 1 1 2 2 1 2 2 2 2 1 2 3 2 2 2 3 1 3 4 4 2 3 4 6 6 5 5 3 3 1 4 3 2 1 4 1 1 1 1 1 1 2 2 2 6 8 5 2 5 2 1 4 6 10 11 10 7 9 7 9 11 14 17 16 12 10 12 17 19 19 18 19 21 23 24 23 24 25 24 22 21 24
0 1 1 2 2 2 2 1 2 2 0 3 3 2 2 3 2 3 3 3 3 3 3 4 3 5 4 3 3 3 5 4 3 3 2 3 3 3 2 3 3 2 1 1 1 2 1 3 5 4 6 6 4 4 13 4 7 5 6 9 10 8 8 9 9 12 13 15 13 12 11 12 16 19 22 24 24 23 21 21 22 25 25 25 22 20 22 26
Wind_Direction
17 21 18 16 15 16 18 17 8 2 357 343 318 305 302 300 305 299 315 316 322 342 358 350 344 348 349 345 339 317 317 291 52 42 56 48 355 329 315 316 312 310 309 298 278 252 252 234 244 194 247 231 96 237 103 220 328 255 237 246 252 267 245 66 254 224 36 283 141 175 186 209 217 155 180 168 230 235 220 214 224 219 213 220 115 124 132 137
9 12 11 11 9 9 7 7 5 351 342 325 309 292 289 290 295 307 315 328 340 355 4 0 346 334 345 340 305 297 283 255 234 69 55 53 4 324 320 316 316 308 298 273 265 258 275 228 234 250 245 219 124 256 200 129 293 247 258 257 273 279 48 4 11 4 314 288 88 182 187 214 248 161 157 214 221 209 228 227 223 225 223 203 147 148 153 161
9 5 1 359 357 355 356 355 351 340 336 335 312 289 278 272 303 335 337 348 359 10 0 348 343 329 310 323 282 276 266 231 222 37 68 38 354 336 328 319 304 301 275 306 320 304 305 334 333 261 237 265 161 212 224 78 274 222 275 262 251 36 68 50 5 68 41 32 194 179 196 225 220 268 125 227 257 225 228 235 214 225 225 210 185 169 172 176
3 1 355 351 349 351 349 349 342 341 348 335 318 299 284 266 333 65 50 27 18 2 352 333 309 309 292 273 229 264 249 259 214 24 37 17 347 339 328 318 308 279 262 261 293 287 278 262 256 260 263 252 115 232 233 114 246 82 242 255 1 354 300 75 49 61 59 350 275 226 139 229 216 220 186 234 245 248 244 235 239 225 227 220 189 175 173 184
359 356 354 349 346 351 345 346 343 338 334 336 328 320 299 280 269 358 34 26 18 353 339 328 306 282 266 269 262 231 264 252 83 322 37 357 342 339 326 318 306 278 262 287 259 244 253 264 241 264 260 234 204 224 230 107 354 285 271 351 322 350 284 79 55 52 40 32 282 191 199 239 169 222 225 232 243 253 270 259 229 243 240 233 184 179 176 187
351 352 347 345 344 338 341 339 337 334 337 337 337 319 307 295 308 4 358 4 1 353 334 322 310 267 266 250 235 239 250 297 5 13 1 347 333 332 311 300 290 290 259 232 254 241 245 221 241 215 229 255 187 245 94 27 93 253 159 255 15 7 307 86 123 72 291 185 211 212 239 160 204 244 222 232 236 243 77 54 26 2 338 326 159 169 182 189
349 346 342 339 340 342 340 344 342 343 342 339 335 332 324 317 323 350 2 1 1 354 346 335 323 289 245 273 235 262 276 89 344 18 8 336 321 315 307 268 238 264 254 248 224 231 218 251 246 268 273 264 234 257 83 196 196 258 294 135 193 346 263 110 75 79 127 233 232 298 11 247 235 251 255 239 238 245 235 116 101 93 59 136 160 175 189 193
349 345 339 341 333 339 342 340 338 341 340 338 335 335 333 325 323 337 0 12 1 357 350 336 326 295 278 239 260 234 244 44 3 353 341 330 305 326 191 274 283 256 244 256 247 227 240 245 244 152 249 285 73 236 78 245 199 237 252 194 123 221 134 146 122 170 211 253 298 293 257 247 246 261 309 250 248 247 246 158 154 149 162 179 195 189 198 202
344 341 338 332 332 335 349 336 328 323 337 329 333 328 327 322 329 350 3 7 351 348 348 297 264 272 229 278 274 273 111 26 360 332 341 333 328 308 288 288 313 253 251 239 254 277 255 219 253 230 339 225 168 200 228 275 207 271 326 162 170 203 161 161 185 200 220 246 239 255 251 257 248 345 268 260 254 246 245 209 182 175 194 197 206 204 202 205
337 336 335 316 329 343 336 328 324 331 341 329 320 318 307 305 330 355 358 349 347 339 323 301 253 241 265 253 254 261 79 312 348 349 344 324 315 276 286 355 323 265 234 184 240 242 230 347 306 116 269 88 193 56 11 245 353 306 149 216 220 193 190 184 229 203 213 255 216 247 270 271 138 213 278 244 259 221 222 213 205 212 221 214 207 208 209 211
336 332 326 316 315 325 321 332 347 341 334 324 317 308 297 312 330 345 351 347 354 1 294 290 310 272 267 266 274 321 11 299 2 351 354 324 340 356 359 347 333 289 329 125 308 322 341 294 225 127 242 109 154 129 290 57 338 13 130 139 235 213 229 207 228 229 202 239 209 261 275 271 209 212 249 248 133 161 198 208 219 219 231 227 218 212 210 213
334 327 319 320 332 332 330 327 346 333 321 316 314 313 312 320 334 344 332 30 56 354 305 298 289 283 294 277 357 32 2 25 336 356 345 4 18 353 345 337 330 330 306 205 65 16 291 144 206 147 357 148 195 125 118 170 309 130 231 248 220 220 235 214 218 217 202 235 165 295 283 257 207 228 236 242 145 181 209 228 220 226 231 230 225 218 213 213
334 325 318 321 334 327 326 332 330 315 309 312 311 304 303 315 324 335 326 186 58 155 302 308 280 266 289 245 65 83 11 11 346 300 1 348 319 277 332 346 8 20 345 144 106 86 323 320 281 141 30 291 85 290 101 213 115 181 217 270 276 238 246 218 199 182 188 204 128 265 289 307 193 219 240 148 163 181 221 228 224 226 224 223 220 218 219 213
333 330 320 325 327 316 317 315 308 305 295 289 288 293 298 300 305 317 330 75 153 148 210 311 288 274 257 58 109 92 307 266 269 325 5 326 264 149 310 39 41 44 40 71 77 229 230 248 95 94 39 14 130 166 162 147 179 245 138 239 253 265 250 129 181 171 216 120 178 216 263 289 311 213 207 151 173 186 222 231 228 222 216 213 214 216 219 216
333 330 320 327 328 327 320 313 305 292 279 284 291 298 294 292 308 305 306 188 32 205 238 273 267 273 230 95 116 105 61 269 312 17 8 350 337 257 145 48 46 39 31 24 72 303 73 130 135 142 93 55 117 178 193 214 203 221 243 235 205 235 133 162 160 176 224 137 196 203 253 264 293 344 147 155 179 207 240 252 255 243 222 208 207 214 217 220
340 337 331 335 331 328 319 308 295 287 289 304 299 289 267 262 298 307 13 52 313 121 201 224 254 303 281 193 96 128 220 306 9 355 15 340 349 329 18 298 283 211 261 113 304 210 176 108 49 101 129 171 207 242 259 243 221 206 221 281 285 253 278 218 158 195 291 116 178 207 272 311 302 105 146 172 193 215 243 264 266 264 257 228 216 210 215 216
347 340 334 331 319 312 312 303 296 297 300 295 295 244 235 294 159 190 212 212 223 207 267 329 306 256 279 60 229 226 42 38 339 331 345 23 327 330 297 222 203 173 196 204 225 235 178 199 193 194 232 247 225 276 275 251 248 199 196 267 284 272 288 285 116 203 172 220 220 216 244 255 274 282 269 184 216 226 248 262 274 275 267 259 247 233 216 218
350 336 331 321 314 307 308 308 317 316 306 299 271 242 257 257 214 184 223 216 220 221 106 234 278 247 170 201 242 26 344 305 352 333 298 326 308 314 279 261 216 232 233 211 199 229 183 170 211 296 171 196 206 213 238 287 352 341 310 296 287 290 248 271 281 112 204 163 257 262 244 261 272 282 284 273 206 235 254 271 287 288 277 265 257 248 246 244
339 336 329 330 327 325 325 314 306 299 298 287 215 206 224 268 265 237 37 303 233 200 211 131 288 275 22 33 355 325 350 345 294 289 343 350 304 290 282 265 269 232 224 235 153 226 187 186 219 237 241 201 214 221 246 308 338 304 314 295 298 286 290 291 71 104 300 264 258 260 264 276 282 285 288 293 301 222 265 283 289 289 279 274 267 259 251 256
338 334 338 328 326 321 317 312 309 319 337 304 224 203 199 217 197 177 83 45 43 14 359 338 277 290 229 349 358 344 238 256 285 142 330 54 295 250 247 248 231 231 254 254 137 120 357 245 236 246 297 35 113 253 292 342 332 304 280 273 270 276 282 277 101 63 100 297 260 261 274 280 281 282 281 299 309 296 290 293 298 297 292 279 269 261 265 264
329 338 340 334 332 330 324 325 330 330 324 293 292 296 355 5 313 10 16 55 44 0 325 31 359 329 343 349 356 355 301 196 236 335 32 307 263 293 212 213 231 234 198 36 325 71 267 263 265 29 47 36 60 41 1 294 294 272 275 275 277 275 280 320 105 126 108 305 287 297 289 280 282 278 287 303 306 297 321 322 327 353 350 332 300 281 268 278
331 347 346 343 337 336 327 327 325 314 287 281 344 25 66 37 12 8 301 247 138 0 245 341 305 267 161 281 48 322 277 276 215 249 90 340 203 227 118 239 240 270 109 188 231 217 207 251 84 58 69 86 75 76 45 269 277 250 257 275 285 281 301 99 81 114 146 242 280 314 302 290 279 283 296 306 314 309 319 327 341 339 343 355 29 347 332 253
347 349 349 342 334 329 327 311 297 293 296 331 34 57 63 14 328 342 259 287 203 143 251 306 254 304 50 122 84 294 274 255 289 63 2 342 214 243 329 258 242 254 245 229 267 286 270 103 58 64 98 116 103 106 109 247 234 260 260 249 263 314 347 287 117 201 192 233 294 313 293 282 282 287 313 111 306 324 313 316 312 313 339 15 16 15 352 14
346 349 346 340 330 326 310 313 277 269 44 34 60 49 28 320 310 287 265 286 314 150 272 60 321 331 347 343 63 298 292 47 263 13 23 342 306 18 254 309 279 237 253 204 270 274 301 70 70 89 82 288 262 146 235 247 270 237 231 262 277 301 315 290 312 315 297 237 310 268 262 263 245 227 146 175 177 261 76 150 182 145 45 359 329 353 28 14
345 345 344 339 331 323 314 302 298 48 283 108 77 70 345 313 298 335 287 236 207 161 131 184 223 250 33 153 201 274 80 222 333 0 346 345 340 257 45 13 278 257 79 78 270 256 234 67 56 188 154 141 244 249 214 258 277 282 268 351 333 339 306 309 315 326 314 257 145 329 331 317 125 267 357 86 128 96 64 89 79 74 63 47 37 43 42 43
346 344 340 332 328 331 323 256 84 261 277 46 42 29 307 304 289 295 281 276 277 100 189 141 190 135 295 166 343 323 330 247 63 28 353 18 298 288 338 196 301 327 79 203 297 342 24 86 238 201 232 189 240 264 309 157 278 283 46 352 29 335 315 306 304 332 296 305 112 32 307 290 289 282 117 100 99 100 103 80 76 64 62 53 53 49 46 42
342 343 343 334 329 324 251 354 36 212 251 107 92 329 293 284 357 252 266 216 238 76 321 74 239 81 271 29 338 296 260 85 80 74 242 49 319 166 278 96 181 124 33 304 269 192 145 123 143 248 217 233 241 260 175 205 277 271 91 263 331 286 293 298 296 257 267 283 288 239 226 267 296 283 121 137 111 80 85 79 72 69 64 62 57 52 49 40
341 339 343 339 329 354 9 307 271 317 29 42 348 292 290 276 263 254 255 300 196 331 324 177 24 23 292 356 268 280 348 324 254 136 330 324 257 202 239 317 313 357 153 214 280 58 269 139 197 183 227 244 270 48 60 279 241 348 88 17 295 292 284 272 263 268 273 311 304 154 212 238 252 162 138 160 133 76 84 82 75 69 61 57 52 48 43 41
340 336 336 334 315 318 338 354 346 44 38 43 316 281 278 268 254 281 279 272 95 317 121 201 82 204 281 190 240 173 275 31 303 49 182 216 257 312 264 66 312 346 156 256 272 114 23 31 92 289 236 286 60 24 36 90 257 92 322 228 263 249 238 239 255 263 273 273 275 186 180 259 278 307 178 183 136 75 102 91 74 61 54 48 39 36 33 31
340 338 337 329 289 237 353 117 57 67 67 29 263 260 260 247 226 223 224 256 49 153 226 50 228 324 319 293 216 328 252 102 216 313 201 296 111 184 75 305 252 203 225 187 254 19 109 57 300 262 277 27 4 61 352 330 333 329 266 277 252 214 220 195 250 269 259 246 226 100 236 291 303 290 323 191 86 98 120 104 73 54 48 37 32 23 25 19
342 341 343 319 354 4 293 169 80 119 154 231 248 236 246 227 272 300 256 36 234 67 203 97 22 356 6 6 314 94 187 350 350 335 230 187 192 202 189 202 193 245 242 215 226 161 154 149 200 75 16 290 333 222 162 241 287 290 278 292 300 263 168 232 232 201 250 272 94 18 163 304 275 288 53 99 119 66 91 87 57 53 34 31 21 17 20 15
343 337 2 27 341 282 338 17 32 6 229 260 238 239 248 274 183 259 334 120 265 30 338 1 92 15 330 77 229 341 336 313 26 17 0 354 323 291 35 342 4 314 264 156 81 140 204 164 68 105 347 283 219 259 166 202 201 224 268 258 297 304 278 262 178 236 227 294 119 116 220 266 234 251 47 122 117 99 82 75 75 43 38 23 23 19 16 18
333 333 325 34 259 35 58 6 316 323 285 235 245 250 266 301 276 43 10 3 346 342 64 186 306 328 327 281 148 341 175 321 23 171 294 221 269 101 20 17 4 316 293 16 314 278 112 33 172 116 161 174 277 277 187 208 162 256 276 338 309 312 319 285 290 290 284 113 150 97 37 256 269 276 98 115 108 97 91 95 78 65 28 12 18 15 21 17
328 306 233 16 41 74 11 337 326 290 262 218 264 248 260 276 283 110 296 302 339 87 294 324 312 256 241 311 22 337 266 156 336 349 291 288 225 273 128 87 355 260 224 298 289 8 303 238 148 215 169 47 248 284 347 319 325 330 41 284 309 305 299 300 308 305 304 307 111 259 323 266 288 75 115 112 107 98 98 99 104 52 22 3 1 15 16 12
318 318 100 175 201 140 57 221 260 261 270 264 253 257 265 273 351 340 291 28 32 323 278 130 292 296 211 164 92 77 11 335 64 318 223 291 4 346 7 59 68 330 299 290 88 280 205 274 68 351 22 306 233 48 326 333 265 171 333 350 251 247 336 273 306 310 303 308 289 169 223 285 318 124 119 116 111 104 89 71 41 42 6 345 5 7 12 8
274 157 241 51 345 47 20 154 282 247 270 266 262 253 275 17 335 23 13 313 329 333 317 243 204 262 283 154 112 58 150 307 8 331 186 253 38 342 61 42 18 28 350 312 13 294 294 249 122 117 247 159 33 1 91 326 290 82 245 262 30 8 292 287 286 260 314 260 251 203 248 234 145 128 130 140 133 111 79 49 29 8 358 355 3 8 7 -0
308 235 221 33 356 10 335 277 281 261 261 267 261 280 30 70 29 345 40 349 23 321 281 336 58 352 352 317 64 65 55 247 252 308 328 158 144 46 84 92 358 303 44 346 292 104 302 308 143 194 207 111 353 359 317 334 331 319 263 26 285 64 352 283 290 316 274 275 287 130 262 289 314 297 161 158 137 78 31 14 2 1 356 357 4 356 1 355
309 315 331 16 350 324 317 279 279 255 267 250 249 328 92 258 66 9 8 287 245 196 305 291 82 325 9 340 349 20 20 315 28 267 312 28 342 354 80 42 89 1 2 33 305 34 350 295 143 344 83 126 182 251 224 179 298 292 346 336 306 281 262 165 271 290 313 289 299 289 338 274 275 277 158 162 136 44 16 4 -0 -0 359 358 359 356 353 349
258 260 229 62 337 323 301 292 255 279 247 251 241 244 82 21 40 36 21 332 272 321 276 65 325 48 24 304 348 154 5 325 350 334 319 51 290 49 25 327 114 77 302 322 257 355 230 283 321 114 104 111 212 217 288 132 139 295 283 258 84 278 256 282 304 313 305 285 295 290 146 292 266 330 135 103 83 38 6 8 2 357 355 354 350 347 342 343
278 255 139 44 341 317 293 266 270 244 254 310 0 22 39 4 70 69 26 334 58 297 15 338 82 298 244 302 31 319 105 275 306 326 281 50 332 57 42 8 16 117 312 258 300 314 283 142 293 110 288 266 252 180 274 16 266 157 214 216 149 212 31 284 274 244 272 292 286 294 290 272 65 21 42 60 39 22 16 0 356 354 349 342 339 339 337 335
192 268 74 2 343 311 264 254 341 28 0 104 90 45 52 32 44 106 51 5 316 104 323 336 318 282 8 311 182 108 295 264 263 280 310 260 343 160 42 19 349 0 330 248 230 258 260 245 266 298 269 247 314 41 26 28 25 297 301 285 300 280 264 279 289 97 300 252 279 300 285 284 331 73 85 65 39 24 16 8 351 351 341 337 338 336 337 334
284 288 54 6 345 307 279 247 70 338 284 348 18 9 67 359 248 82 173 140 285 314 137 284 230 276 279 264 338 311 295 288 250 281 175 297 71 7 70 352 339 328 312 324 18 42 328 313 292 278 270 297 87 74 63 32 315 344 312 278 8 298 275 271 283 310 23 255 31 276 287 300 71 84 89 31 45 25 25 8 359 349 339 336 335 335 333 329
327 329 89 319 339 315 291 146 174 230 23 59 159 135 98 193 346 80 263 171 224 219 239 231 317 277 81 333 341 292 287 277 259 277 15 294 58 38 1 321 323 278 244 238 175 95 348 257 269 262 274 120 92 113 114 89 303 220 210 232 253 273 322 288 298 344 305 290 279 271 252 275 89 109 59 91 67 51 9 12 352 341 337 334 332 329 325 322
299 306 179 163 273 288 285 11 358 11 71 142 235 88 238 20 279 186 233 154 291 170 300 316 171 248 324 356 284 289 34 294 112 299 197 43 312 66 34 335 343 10 322 35 328 38 286 205 225 301 307 259 157 129 122 62 213 258 326 115 23 69 65 45 306 285 273 261 252 269 270 290 115 182 156 341 338 353 356 354 352 336 330 326 322 321 322 322
219 198 261 356 20 359 281 30 332 337 28 339 343 321 10 177 8 0 341 8 35 296 272 203 13 1 254 36 283 272 262 276 307 84 299 307 11 130 75 33 339 329 47 6 343 320 266 286 306 300 319 319 324 332 336 326 339 329 278 100 86 164 128 281 281 258 257 278 234 253 271 287 319 328 332 334 331 347 349 345 337 330 324 323 322 324 327 326
357 309 88 134 23 67 86 226 2 335 315 315 263 99 256 293 139 155 269 274 32 326 268 335 202 270 263 242 259 240 228 154 235 335 343 323 111 125 64 40 4 1 26 329 315 310 279 317 267 275 278 286 305 316 335 328 305 302 312 298 166 62 122 276 274 273 270 309 294 281 279 304 312 321 321 323 340 351 341 334 329 326 324 323 321 323 326 326
292 346 351 339 37 76 87 36 27 329 359 8 304 49 347 334 34 158 200 250 121 285 278 237 256 244 165 250 301 294 215 249 196 5 248 272 21 55 135 58 139 82 329 313 210 254 264 267 274 273 261 268 290 293 300 309 292 297 312 322 3 163 164 199 240 269 334 322 286 316 342 326 312 319 320 337 356 342 332 326 326 325 327 327 326 325 325 324
285 65 2 80 303 18 320 79 11 52 75 294 34 99 321 333 310 321 158 266 35 183 284 149 221 244 294 312 334 300 307 280 202 261 50 201 304 178 180 165 189 117 251 116 100 314 303 285 85 3 267 275 278 277 285 287 284 299 311 321 323 338 144 216 254 272 299 282 287 312 314 307 309 313 349 3 346 335 327 326 326 327 326 327 327 327 324 324
15 77 77 342 270 53 21 353 323 329 83 338 69 158 293 283 325 46 343 134 197 176 219 316 75 110 278 276 289 300 321 318 326 126 221 9 316 330 302 151 116 188 211 146 132 45 282 256 88 180 282 280 267 269 279 280 315 317 320 345 349 344 315 256 274 293 295 285 291 299 304 302 307 343 355 346 339 329 328 327 327 329 330 329 326 322 324 328
155 239 125 14 51 98 88 276 276 258 268 156 264 106 310 298 320 42 159 254 301 126 103 251 339 62 355 280 260 265 341 351 350 306 64 47 290 171 308 355 19 117 280 117 348 106 272 252 86 284 285 295 76 109 135 189 336 305 57 21 12 358 357 353 304 305 310 299 301 305 305 301 322 7 342 337 331 333 330 331 330 328 328 325 322 321 326 333
19 4 330 222 204 110 209 232 258 305 275 154 289 87 266 226 335 10 322 28 295 353 180 322 355 303 183 268 248 273 23 0 333 322 333 263 278 40 314 40 355 297 122 167 175 6 187 281 138 264 305 311 125 200 196 251 118 83 40 26 10 0 1 347 329 334 323 313 314 308 301 313 342 342 332 329 335 337 336 331 328 328 327 324 322 324 334 337
175 121 250 290 275 110 279 147 237 258 136 39 358 32 326 30 31 357 286 104 33 39 7 333 338 311 261 211 311 33 11 350 358 330 305 313 303 310 310 339 352 336 294 162 5 258 341 323 314 333 313 297 100 329 318 327 121 145 58 28 5 354 354 337 328 326 316 313 310 317 321 342 338 338 333 332 335 335 335 333 328 324 321 318 323 336 337 327